Home > Weather > Glendale > Past weeks

Flag for U.S.A. Weather for the Past 2 Weeks in Glendale, California, U.S.A.

Now
71 °F

Sunny.


Feels Like: 74 °F
Forecast: 52 / 80 °F
Wind: 5 mph from South

Location: Bob Hope Airport

Current Time: Feb 6, 2016 at 6:02:07 PM

Latest Report: Feb 6, 2016 at 4:53 PM


Visibility: 10 mi

Pressure: 30.11 "Hg

Humidity: 18%

Dew point: 25 °F

Location of GlendaleLocation

Historic Weather in Glendale — Graph

°F

Glendale Temperature Yesterday

Maximum temperature yesterday: 75 °F (at 2:53 PM)
Minimum temperature yesterday: 43 °F (at 4:53 AM)
Average temperature yesterday: 59 °F

High & Low Weather Summary for the Past Weeks

 TemperatureHumidityPressure
High77 °F (Feb 6, 2:53 PM)94% (Jan 31, 7:59 AM)30.34 "Hg (Jan 31, 7:59 AM)
Low39 °F (Feb 2, 5:53 AM)10% (Jan 28, 1:53 PM)29.54 "Hg (Jan 31, 1:53 PM)
Average56 °F46%30.09 "Hg
* Reported Jan 22 3:53 PM — Feb 6 3:53 PM, Glendale, Weather by CustomWeather, © 2016

Note: Actual official high and low records may vary slightly from our data, if they occured in-between our weather recording intervals... More about our weather records

Advertising

Glendale Weather History for the Previous 24 Hours

 ConditionsComfort  
Time TempWeatherWind HumidityBarometerVisibility
3:53 PM
Sat, Feb 6
75 °FSunny.9 mph15%30.10 "Hg10 mi
2:53 PM77 °FSunny.6 mph13%30.11 "Hg10 mi
1:53 PM76 °FSunny.3 mph14%30.13 "Hg10 mi
12:53 PM75 °FSunny.No wind14%30.16 "Hg10 mi
11:53 AM72 °FSunny.No wind17%30.21 "Hg10 mi
10:53 AM68 °FSunny.No wind18%30.24 "Hg10 mi
9:53 AM62 °FSunny.No wind22%30.26 "Hg10 mi
8:53 AM57 °FSunny.No wind28%30.26 "Hg10 mi
7:53 AM50 °FSunny.No wind41%30.26 "Hg10 mi
6:53 AM44 °FSunny.No wind47%30.24 "Hg10 mi
5:53 AM45 °FClear.5 mph48%30.23 "Hg10 mi
4:53 AM45 °FClear.No wind45%30.22 "Hg10 mi
3:53 AM47 °FClear.No wind41%30.24 "Hg10 mi
2:53 AM50 °FClear.3 mph35%30.25 "Hg10 mi
1:53 AM50 °FClear.No wind39%30.26 "Hg10 mi
12:53 AM54 °FClear.No wind31%30.26 "Hg10 mi
11:53 PM
Fri, Feb 5
53 °FClear.No wind32%30.26 "Hg10 mi
10:53 PM55 °FClear.No wind29%30.25 "Hg10 mi
9:53 PM58 °FClear.No wind25%30.25 "Hg10 mi
8:53 PM60 °FClear.No wind23%30.25 "Hg10 mi
7:53 PM62 °FClear.No wind20%30.26 "Hg10 mi
6:53 PM65 °FClear.5 mph19%30.25 "Hg10 mi
Weather by CustomWeather, © 2016

See weather overviewHow to use our weather pages